User: anonymous   Login
Location: Unspecified
(0.0000°N, 0.0000°E)
Time: 00:15:17
(UTC+00:00)
Language:

ELFIN B - Orbit

View from above orbital plane
View from above orbital plane
View from above satellite
View from above satellite

Ground track
Ground track

The orbit data is extracted from the following two-line orbital elements,

1 43616U 18070D   19170.78216468  .00002002  00000-0  53552-4 0  9994
2 43616  93.0189   4.0383 0014849 311.5273  48.4706 15.38054782 42589
Epoch (UTC): 19 June 2019 18:46:19
Eccentricity: 0.0014849
inclination: 93.0189°
perigee height: 442 km
apogee height: 462 km
right ascension of ascending node: 4.0383°
argument of perigee: 311.5273°
revolutions per day: 15.38054782
mean anomaly at epoch: 48.4706°
orbit number at epoch: 4258

The dashed part of the orbit path shows where the satellite is in the earth's shadow,  

DLR